Laman API Video Percuma Terbaik

AVDBAPI.COM

Cari katalog, semak rekod, dan salin URL API bersih daripada papan pemuka pantas.

Telegram Join Our Telegram Community for Updates!
Today
30
Kemaskini Hari Ini
Censored
314171
Censored Videos
Total
474382
Total Videos

Senarai Video

Rekod terkini disusun mengikut masa kemas kini.

ID Nama CODE Kategori Dikemaskini API
266023 C0930-KI201224 Riho Tamba, Wanita 30 Tahun C0930-KI201224 Tanpa sensor 2025-08-29 06:55:30 API
266022 FC2-PPV-4472110 Pijama Seksi: Gadis mungil yang comel dan ceria, sangat menawan hati FC2-PPV-4472110 Tanpa sensor 2025-08-29 06:55:20 API
266021 103120_02 Festival Mansho Mengubah Arnab Eratik Menjadi Pelacur 103120_02 Tanpa sensor 2025-08-29 06:55:10 API
266020 H0930-KI210520 Kayo Mizumori, 31 tahun H0930-KI210520 Tanpa sensor 2025-08-29 06:55:00 API
266019 040415-166 Jika anda boleh tahan kena kangkang dengan Yui Hatano, sertai parti peminat dengan cumshot dalam faraj 040415-166 Tanpa sensor 2025-08-29 06:54:50 API
266018 110519_924 Sujikko Club 110519_924 Tanpa sensor 2025-08-29 06:54:40 API
266017 052521-001 Parti Orgy Creampie ~ Pertarungan Zakar Dua Pelacur Kotor! ~ Eri Hoshikawa, Maki Kawano 052521-001 Tanpa sensor 2025-08-29 06:54:30 API
266016 KB1499 Team Kimura Edisi Khas - KB1499 Tanpa sensor 2025-08-29 06:54:20 API
266015 H4610-KI220201 Gadis Hot 21 Tahun Shion Iwaki H4610-KI220201 Tanpa sensor 2025-08-29 06:54:10 API
266014 C0930-HITOZUMA1342 Nanna Tokutaka 27 tahun C0930-HITOZUMA1342 Tanpa sensor 2025-08-29 06:54:00 API
266013 031020-267 Mak Cik Seksi ~ Sangat Disayangi Bekas Isteri Yang di Kawasan Ini! ~ 031020-267 Tanpa sensor 2025-08-29 06:53:50 API
266012 103120-01 Gadis amatur mempesona yang menyebarkan feromon menggoda 103120-01 Tanpa sensor 2025-08-29 06:53:40 API
266011 FC2-PPV-4483845 Blowjob dan Creampie Penuh Mani 3D FC2-PPV-4483845 Tanpa sensor 2025-08-29 06:53:30 API
266009 H0930-ORI1602 Riyo Igai, Wanita Cantik Berusia 31 Tahun H0930-ORI1602 Tanpa sensor 2025-08-29 06:53:10 API
266008 HEYZO-2509 Pengantin Berbadan Mantap Tengah Ngentot Dengan Abang Aku HEYZO-2509 Tanpa sensor 2025-08-29 06:53:00 API
266007 SKY-156 Sky Angel Vol.106: Yuzu Shiina SKY-156 Tanpa sensor 2025-08-29 06:52:50 API
266006 041615-175 Dendam di Bilik Suite ~ Mao Sena, Resepsionis ~ 041615-175 Tanpa sensor 2025-08-29 06:52:40 API
266005 H-220201 - Ki220201 Shion Iwaki Gadis 21 Tahun H-220201 Tanpa sensor 2025-08-29 06:52:30 API
266004 C0930-KI201226 Video Selfie Masturbasi Yang Mengghairahkan C0930-KI201226 Tanpa sensor 2025-08-29 06:52:20 API
266003 031220-268 Pancutan sperma ke dalam faraj isteri berpakaian pelaut tanpa belas kasihan pada akhir bulan 031220-268 Tanpa sensor 2025-08-29 06:52:10 API
266002 052621-001 0521-001 Antologi Isteri-Isteri Ketagih Seks: Ai Uehara, Misuzu Tachibana, Akari Niiyama, Nozomi Haneda, Mirai Fujii 052621-001 Tanpa sensor 2025-08-29 06:52:00 API
266001 110919_926 Pelacur M Yui Shinshiro 110919_926 Tanpa sensor 2025-08-29 06:51:50 API
266000 H0930-KI210523 Mao Fujiwara Wanita 28 Tahun H0930-KI210523 Tanpa sensor 2025-08-29 06:51:40 API
265999 110320-01 Aku rakam video gonzo teman wanitaku guna kamera terbaru, jom tengok 110320-01 Tanpa sensor 2025-08-29 06:51:30 API
265998 HEYZO-2510 Tanpa Henti!! Syurga Nikmat - Aku mahu kau kangkang dan kangkang aku berkali-kali - HEYZO-2510 Tanpa sensor 2025-08-29 06:51:20 API
265997 CARIBBEANCOMPR-042415_186 Perarakan Urologi ~ Ejakulasi Terlambat dan Ejakulasi Pramatang CARIBBEANCOMPR-042415_186 Tanpa sensor 2025-08-29 06:51:10 API
265996 C0930-KI201227 Nakaji Kaneko Wanita Seksi 32 Tahun C0930-KI201227 Tanpa sensor 2025-08-29 06:51:00 API
265995 SKY-168 Sky Angel Vol.113: Rei Sasaki SKY-168 Tanpa sensor 2025-08-29 06:50:50 API
265994 H4610-KI220203 Sayaka Ishida, Wanita 26 Tahun H4610-KI220203 Tanpa sensor 2025-08-29 06:50:40 API
265993 H0930-KI210525 Wanita Seksi 30 Tahun Kayoko Sahara H0930-KI210525 Tanpa sensor 2025-08-29 06:50:30 API
265992 031420-269 Telan Mani Isteri Orang 103 ~ Wanita Matang Cantik Yang Berwajah Biasa Tapi Mempunyai Faraj Yang Sangat Kotor ~ 031420-269 Tanpa sensor 2025-08-29 06:50:20 API
265991 111219_927 Pakai Cermin Mata Hitam, Hina Shirayama Dikerjakan Gaya Saddle Secara Raw 111219_927 Tanpa sensor 2025-08-29 06:50:10 API
265990 HEYZO-2511 Nafsu Berahi Janda Vol.3 HEYZO-2511 Tanpa sensor 2025-08-29 06:50:00 API
265989 052721-001 Buku Gambar Khemak Eri Saeki 052721-001 Tanpa sensor 2025-08-29 06:49:50 API
265988 042315-181 S Model 127 12 Pelakon Paling Popular Dalam Sejarah, 3 Jam Ekstasi DX 042315-181 Tanpa sensor 2025-08-29 06:49:40 API
265987 110420-01 Aku kongkek habis gadis kemas yang sangat cantik 110420-01 Tanpa sensor 2025-08-29 06:49:30 API
265986 FC2-PPV-4475994 Baru sampai pada 4/7, terhad kepada 980 mata sahaja! *Belum diperiksa/dirakam FC2-PPV-4475994 Tanpa sensor 2025-08-29 06:49:20 API
265985 C0930-KI201228 Orgi Amatir Yang Sangat Nakal C0930-KI201228 Tanpa sensor 2025-08-29 06:49:10 API
265984 H0930-KI210527 Akemi Hyodo, 30 tahun H0930-KI210527 Tanpa sensor 2025-08-29 06:49:00 API
265983 031720-270 Perasaan seorang isteri yang melihat aksi Sensuri dari jarak dekat 031720-270 Tanpa sensor 2025-08-29 06:48:50 API
265982 111419_928 Tokimeki ~ Kekasihku yang teringin batang kontol ~ 111419_928 Tanpa sensor 2025-08-29 06:48:40 API
265979 HEYZO-2512 Saya akan berikan pai bersama Miya Izumi! HEYZO-2512 Tanpa sensor 2025-08-29 06:48:10 API
265978 H0930-KI210529 Tomoe Sugita Wanita Matang Berusia 40 Tahun H0930-KI210529 Tanpa sensor 2025-08-29 06:48:00 API
265977 FC2-PPV-4483846 Siaran Langsung Hari Ke-3 Hanya 990 Mata!!! "Awak suka pakai stoking? FC2-PPV-4483846 Tanpa sensor 2025-08-29 06:47:50 API
265976 052821-001 Aku buat OL bahagian aduan minta maaf dengan tubuhnya! Vol.7 Sakura Kojima 052821-001 Tanpa sensor 2025-08-29 06:47:40 API
265975 042415-186 Jabatan Urologi Tempat Beratur - Ejakulasi Lewat dan Ejakulasi Pramatang - Bonus Moshi 042415-186 Tanpa sensor 2025-08-29 06:47:30 API
265974 H4610-KI220208 Hikaru Komori Gadis 18 Tahun Yang Menggiurkan H4610-KI220208 Tanpa sensor 2025-08-29 06:47:20 API
265973 HEYZO-2525 Creampie lagi dengan si pirang buah dada besar # Sophia 3 HEYZO-2525 Tanpa sensor 2025-08-29 06:47:10 API
265972 110520-01 Perempuan ghairah yang tidak berhenti menggeliat 110520-01 Tanpa sensor 2025-08-29 06:47:00 API
265971 KB1500 Team Kimura Edisi Khas - KB1500 Tanpa sensor 2025-08-29 06:46:50 API